User: anonymous   Login
Location: Newark
(42.9260°N, 89.3850°W)
Time: 11:16:29
(UTC+00:00)
Language:

STARLINK-1033 - Orbit

View from above orbital plane
View from above orbital plane
View from above satellite
View from above satellite

Ground track
Ground track

The orbit data is extracted from the following two-line orbital elements,

1 44738C 19074BA  20058.19024129  .00004116  00000-0  28190-3 0   581
2 44738  52.9874  14.0897 0002154  55.5755 150.2920 15.05579718    14
Epoch (UTC): 27 February 2020 04:33:56
Eccentricity: 0.0002154
inclination: 52.9874°
perigee height: 548 km
apogee height: 551 km
right ascension of ascending node: 14.0897°
argument of perigee: 55.5755°
revolutions per day: 15.05579718
mean anomaly at epoch: 150.2920°
orbit number at epoch: 1

The dashed part of the orbit path shows where the satellite is in the earth's shadow,  

DLR